Location: Aix-en-Ergny
(50.5839°N, 1.9996°E)
Time: 23:02:22
(UTC+00:00)

Cosmos 2219 Rocket - Pass Details

Date: 23 October 2019
Orbit: 828 x 846 km, 71.0° (Epoch: 11 November)

Event Time Altitude Azimuth Distance (km) Brightness Sun altitude
Exits shadow 05:29:28 10° 299° (WNW) 2,457 4.0 -9.8°
Reaches altitude 10° 05:29:33 10° 300° (WNW) 2,443 4.0 -9.8°
Maximum altitude 05:32:33 15° 333° (NNW) 2,143 4.0 -9.3°
Drops below altitude 10° 05:35:34 10° 6° (N) 2,451 4.6 -8.8°
Sets 05:39:16 0° 30° (NNE) 3,391 5.7 -8.3°
